Left ArrowRight Arrow

Hourly Observations for March 12, 2019

Temp ( °F °C ) Dew Point ( °F °C ) Humidity (%) Winds ( mph kmh ) Pressure ( in mb ) Visibility ( mi km ) Precip ( " mm )
12:56 am 00:56 Mostly Cloudy 32 0.1 32 0.1 100 100 E 7 11 30.30 1026 10 16 0.00 0.00
1:53 am 01:53 Cloudy 34 1 34 1 100 100 SE 6 9 30.28 1025 10 16 0.00 0.00
1:56 am 01:56 Cloudy 34 1.3 34 1.2 99 99 SE 5 7 30.28 1025 10 16 0.00 0.00
2:56 am 02:56 Cloudy 35 1.8 35 1.8 100 100 ESE 5 7 30.25 1024 10 16 0.00 0.00
3:56 am 03:56 Cloudy 35 1.9 35 1.9 100 100 ESE 8 13 30.23 1024 10 16 0.00 0.00
4:56 am 04:56 Cloudy 37 2.5 37 2.5 100 100 SE 9 15 30.19 1023 10 16 0.00 0.00
5:56 am 05:56 Cloudy 36 2.4 36 2.4 100 100 ESE 6 9 30.19 1022 10 16 0.00 0.00
6:56 am 06:56 Cloudy 36 2.3 36 2.3 100 100 ESE 8 13 30.16 1021 10 16 0.00 0.00
7:56 am 07:56 Cloudy 37 2.7 37 2.7 100 100 ESE 8 13 30.15 1021 10 16 0.00 0.00
8:56 am 08:56 Cloudy 37 2.6 37 2.6 100 100 ESE 7 11 30.13 1020 10 16 0.00 0.00
9:47 am 09:47 Mostly Cloudy with Light Rain 39 4 39 4 100 100 SE 14 22 30.12 1020 9 14 0.00 0.00
9:56 am 09:56 Mostly Cloudy with Light Rain 38 3.3 38 3.3 100 100 SE 17 28 30.11 1020 6 10 0.00 0.03
10:10 am 10:10 Cloudy 37 3 37 3 100 100 ESE 8 13 30.10 1019 10 16 0.00 0.00
10:36 am 10:36 Cloudy with Light Rain 37 3 37 3 100 100 ESE 9 15 30.09 1019 10 16 0.00 0.00
10:46 am 10:46 Cloudy with Heavy Rain 37 3 37 3 100 100 ESE 8 13 30.10 1019 4 6 0.00 0.00
10:56 am 10:56 Cloudy with Heavy Rain 37 2.9 37 2.9 100 100 ESE 13 20 30.08 1019 3 4 0.08 2.03
11:06 am 11:06 Cloudy with Light Rain 37 3 37 3 100 100 ESE 9 15 30.07 1018 3 4 0.00 0.00
11:16 am 11:16 Cloudy with Drizzle 37 3 37 3 100 100 E 6 9 30.07 1018 5 8 0.00 0.00
11:26 am 11:26 Cloudy with Light Rain 37 3 37 3 100 100 E 6 9 30.06 1018 7 11 0.00 0.00
11:56 am 11:56 Mostly Cloudy with Light Rain 37 2.9 37 2.9 100 100 ESE 7 11 30.05 1018 9 14 0.06 1.52
12:03 pm 12:03 Mostly Cloudy 37 3 37 3 100 100 ESE 7 11 30.04 1017 9 14 0.00 0.00
12:13 pm 12:13 Mostly Cloudy with Light Rain 37 3 37 3 100 100 ESE 8 13 30.04 1017 8 13 0.00 0.00
12:23 pm 12:23 Cloudy with Light Rain 37 3 37 3 100 100 E 9 15 30.03 1017 7 11 0.00 0.00
12:30 pm 12:30 Cloudy with Light Rain 37 3 37 3 100 100 ESE 9 15 30.02 1017 6 10 0.00 0.00
12:36 pm 12:36 Cloudy 37 3 37 3 100 100 ESE 8 13 30.02 1017 7 11 0.00 0.00
12:43 pm 12:43 Cloudy with Light Rain 37 3 37 3 100 100 SE 10 17 30.03 1017 6 10 0.00 0.00
12:55 pm 12:55 Cloudy 37 3 37 3 100 100 SE 12 19 30.01 1016 9 14 0.00 0.00
12:56 pm 12:56 Cloudy 38 3.3 38 3.3 100 100 SE 12 19 30.01 1016 9 14 0.01 0.25
12:59 pm 12:59 Cloudy with Light Rain 37 3 37 3 100 100 SE 12 19 30.01 1016 8 13 0.00 0.00
1:19 pm 13:19 Cloudy with Light Rain 37 3 37 3 100 100 ESE 12 19 30.00 1016 3 4 0.00 0.00
1:29 pm 13:29 Cloudy with Light Rain 37 3 37 3 100 100 SE 13 20 29.98 1015 7 11 0.00 0.00
1:30 pm 13:30 Cloudy with Mist and Fog 37 3 37 3 100 100 SE 13 20 29.98 1015 2 3 0.00 0.00
1:31 pm 13:31 Cloudy with Drizzle 37 3 37 3 100 100 SE 13 20 29.98 1015 2 4 0.00 0.00
1:33 pm 13:33 Cloudy with Mist and Fog 37 3 37 3 100 100 SE 12 19 29.97 1015 3 4 0.00 0.00
1:43 pm 13:43 Cloudy with Mist and Fog 39 4 39 4 100 100 SE 14 22 29.96 1015 5 8 0.00 0.00
1:56 pm 13:56 Cloudy 40 4.2 40 4.2 100 100 SE 13 20 29.96 1014 6 10 0.04 1.02
1:57 pm 13:57 Cloudy with Rain 39 4 39 4 100 100 SE 12 19 29.96 1014 6 10 0.00 0.00
2:09 pm 14:09 Mostly Cloudy with Mist and Fog 39 4 39 4 100 100 SE 10 17 29.95 1014 2 4 0.00 0.00
2:12 pm 14:12 Mostly Cloudy with Mist and Fog 39 4 39 4 100 100 SE 10 17 29.95 1014 7 11 0.00 0.00
2:16 pm 14:16 Mostly Cloudy with Mist and Fog 39 4 39 4 100 100 SE 9 15 29.93 1014 1 2 0.00 0.00
2:26 pm 14:26 Partly Cloudy with Mist and Fog 39 4 39 4 100 100 SE 10 17 29.93 1014 2 4 0.00 0.00
2:36 pm 14:36 Partly Cloudy with Mist and Fog 39 4 39 4 100 100 SE 8 13 29.93 1013 1 2 0.00 0.00
2:40 pm 14:40 Partly Cloudy with Light Rain 39 4 39 4 100 100 SE 9 15 29.93 1013 1 1 0.00 0.00
2:53 pm 14:53 Partly Cloudy with Fog 41 5 41 5 100 100 ESE 9 15 29.91 1013 0 0 0.00 0.00
2:56 pm 14:56 Sunny with Fog 40 4.6 40 4.6 100 100 ESE 9 15 29.91 1013 0 0 0.00 0.03
4:36 pm 16:36 Mostly Cloudy with Fog 41 5 41 5 100 100 SSE 8 13 29.86 1011 1 2 0.00 0.00
4:49 pm 16:49 Mostly Cloudy with Light Rain 41 5 41 5 100 100 SE 8 13 29.85 1011 1 2 0.00 0.00
4:56 pm 16:56 Mostly Cloudy with Light Rain 41 5.1 41 5.1 100 100 SE 9 15 29.85 1011 1 2 0.00 0.03
5:15 pm 17:15 Mostly Cloudy with Fog 41 5 41 5 100 100 SE 9 15 29.83 1010 1 2 0.00 0.00
5:56 pm 17:56 Mostly Cloudy with Fog 42 5.5 42 5.5 100 100 SE 13 20 29.81 1010 1 2 0.01 0.25
6:06 pm 18:06 Mostly Cloudy with Light Rain 43 6 43 6 100 100 SE 13 20 29.81 1010 1 2 0.00 0.00
6:56 pm 18:56 Mostly Cloudy with Fog 42 5.4 42 5.4 100 100 SE 10 17 29.81 1010 1 2 0.00 0.00
7:19 pm 19:19 Mostly Cloudy with Fog 43 6 43 6 100 100 SE 8 13 29.81 1010 1 2 0.00 0.00
7:31 pm 19:31 Mostly Cloudy with Light Rain 41 5 41 5 100 100 SE 12 19 29.81 1010 1 2 0.00 0.00
7:41 pm 19:41 Mostly Cloudy with Light Rain 41 5 41 5 100 100 SE 9 15 29.80 1009 0 0 0.00 0.00
7:50 pm 19:50 Mostly Cloudy with Fog 41 5 41 5 100 100 ESE 7 11 29.80 1009 0 0 0.00 0.00
7:56 pm 19:56 Mostly Cloudy with Fog 41 4.8 41 4.8 100 100 ESE 6 9 29.80 1009 0 0 0.01 0.25
8:26 pm 20:26 Mostly Cloudy with Fog 41 5 41 5 100 100 E 6 9 29.80 1009 0 0 0.00 0.00
8:36 pm 20:36 Mostly Cloudy with Fog 41 5 41 5 100 100 ESE 6 9 29.79 1009 0 0 0.00 0.00
8:55 pm 20:55 Mostly Cloudy with Fog 41 5 41 5 100 100 E 5 7 29.79 1009 0 0 0.00 0.00
8:56 pm 20:56 Mostly Cloudy with Fog 41 4.8 41 4.8 100 100 E 3 6 29.79 1009 0 0 0.00 0.00
9:35 pm 21:35 Mostly Cloudy with Light Rain 39 4 39 4 100 100 E 3 6 29.78 1009 0 0 0.00 0.00
9:45 pm 21:45 Mostly Cloudy with Light Rain 39 4 39 4 100 100 E 6 9 29.78 1009 3 5 0.00 0.00
9:49 pm 21:49 Mostly Cloudy with Light Rain 39 4 39 4 100 100 E 6 9 29.78 1009 3 5 0.00 0.00
9:56 pm 21:56 Mostly Cloudy with Light Rain 39 4.1 39 4.1 100 100 E 6 9 29.78 1009 3 5 0.00 0.03
10:04 pm 22:04 Mostly Cloudy with Light Rain 39 4 39 4 100 100 E 7 11 29.77 1008 3 5 0.00 0.00
10:17 pm 22:17 Mostly Cloudy with Drizzle 41 5 41 5 100 100 E 6 9 29.77 1008 0 0 0.00 0.00
10:30 pm 22:30 Mostly Cloudy with Drizzle 41 5 41 5 100 100 E 6 9 29.77 1008 3 5 0.00 0.00
10:38 pm 22:38 Mostly Cloudy with Fog 41 5 41 5 100 100 ESE 7 11 29.77 1008 0 0 0.00 0.00
10:44 pm 22:44 Mostly Cloudy with Drizzle 43 6 43 6 100 100 ESE 6 9 29.77 1008 3 5 0.00 0.00
10:56 pm 22:56 Mostly Cloudy with Drizzle 40 4.7 40 4.7 100 100 SE 5 7 29.77 1008 3 5 0.01 0.25
11:56 pm 23:56 Clear with Fog 40 4.5 40 4.5 100 100 ESE 6 9 29.77 1008 0 0 0.00 0.03

Powered by Vaisala Xweather